Regional Weather Roundup
Issued by NWS

Home | Current Version | Previous Version | Text Only | Print | Product List | Glossary Off
Versions: 1 2 3 4 5 6 7 8 9 10 11 12 13 14 15 16 17 18 19 20 21 22 23 24 25 26 27 28 29 30 31 32 33 34 35 36 37 38 39 40 41 42 43 44 45 46 47 48 49

000
ASUS45 KSLC 031410
RWRUT

UTAH REGIONAL WEATHER ROUNDUP
NATIONAL WEATHER SERVICE SALT LAKE CITY UT
800 AM MDT SUN MAY 03 2015

UTZ001>011-023>025-031500-

NORTHERN UTAH

CITY           SKY/WX    TMP DP  RH WIND       PRES   REMARKS
BRIGHAM CITY   CLOUDY    57  42  55 N6        29.89S
HILL AFB       MOSUNNY   62  38  42 S12       29.91R
LOGAN          MOSUNNY   52  42  69 N3        29.91R
OGDEN          PTSUNNY   62  43  49 SW6       29.89R
PROVO AIRPORT  MOSUNNY   55  39  54 SW3       29.94R
SALT LAKE CITY MOSUNNY   62  41  46 S9        29.90R
VERNAL         MOSUNNY   55  33  43 NW3       29.99R
WENDOVER       MOSUNNY   63  36  36 NE9       29.89S
HEBER CITY     MOSUNNY   45  36  70 CALM      30.01R
WEST JORDAN    SUNNY     59  45  58 S3        29.93R

$$

UTZ012>022-026-027-031500-

SOUTHERN/CENTRAL UTAH

CITY           SKY/WX    TMP DP  RH WIND       PRES   REMARKS
BLANDING       CLOUDY    60  34  37 SW5       30.14R
BRYCE CANYON   CLOUDY    48  32  53 S8        30.12R
CEDAR CITY     MOSUNNY   56  34  43 CALM      30.00R
DELTA          MOSUNNY   61  29  30 S10       29.94R
HANKSVILLE     CLOUDY    64  30  27 CALM      29.96R
MILFORD        SUNNY     54  29  38 S6        29.96R
MOAB/CYNLANDS  PTSUNNY   66  30  26 NE9       29.93R
PRICE          PTSUNNY   57  27  31 CALM      29.99R
ST GEORGE      MOSUNNY   66  32  28 SE6       29.91R
KANAB          MOSUNNY   48  36  61 NE3       30.05R

$$

REGIONAL REPORTS     COLORADO/ARIZONA

CITY           SKY/WX    TMP DP  RH WIND       PRES   REMARKS
CRAIG, CO      MOSUNNY   46  39  76 CALM      30.03R
GRAND JUNCTION MOSUNNY   59  39  47 SE7       29.97R
RIFLE          SUNNY     52  38  58 CALM      30.03R
MONTROSE       MOSUNNY   60  34  37 SE8       30.04R
CORTEZ         CLOUDY    52  37  56 CALM      30.09R
PAGE, AZ       CLOUDY    65  33  30 CALM      29.97R
GRAND CANYON   MOSUNNY   48  33  56 VRB3      30.13R
KINGMAN        MOSUNNY   69  33  26 CALM      29.93R
FLAGSTAFF      CLOUDY    50  36  58 VRB5      30.14S

$$

REGIONAL REPORTS    NEVADA/IDAHO/WYOMING

CITY           SKY/WX    TMP DP  RH WIND       PRES   REMARKS
LAS VEGAS, NV  MOSUNNY   72  31  22 S6        29.79R
ELY            MOSUNNY   41  22  46 S9        30.02R
ELKO           PTSUNNY   56  35  45 NW3       29.94R
POCATELLO, ID  CLOUDY    51  39  63 E6        29.93R
BURLEY         MOSUNNY   52  41  66 CALM      29.90R
EVANSTON, WY   PTSUNNY   48  36  63 NE9       30.05F
ROCK SPRINGS   PTSUNNY   49  39  68 S9        30.04R
KEMMERER       CLOUDY    46  36  66 SE8       30.07S

$$



USA.gov is the U.S. government's official web portal to all federal, state and local government web resources and services.